STARLINK-32243, 60367

Orbit data source: Space-Track

STARLINK-32243, 60367 is a payload satellite owned by SpaceX/Seattle (US) in LEO that was launched on Sun, 04 Aug 2024 UTC via an FALCON 9 launch vehicle from the Air Force Western Test Range (AFWTR). Payload-class satellites include a variety of spacecraft equipped with specific instruments for various scientific and technological missions. These include communications satellites like Starlink; space stations such as the ISS; scientific satellites like the Hubble; Earth observation satellites from companies like Planet Labs, Umbra, and HawkEye 360; GPS; miniature CubeSats for education and research; and military/defense satellites.

Loading next visibility...
Identifier
60367, 2024-138N
Orbit
LEO
Country
Flag of USUS
Related business
Manufacturer
SpaceX/Seattle
Mission
Operational Commercial Communications
Bus & Motor
STARLINK V2M, Unknown motor
Mass
730 kg wet, ~700 kg dry
Launch date (UTC)
2024-08-04 (1 year ago)
Launch vehicle
FALCON 9
Launch site
Air Force Western Test Range (AFWTR)
Object type
Payload
Rocket body
Debris
Shape & HBR
Box + 2 Pan, 17.7 m
Radar Cross Section
33.884 m², Large (>1 m²)

Expand to show TLE details & history
Last TLE update: 8 hours ago

TLE from 8 hours ago
0 STARLINK-32243
1 60367U 24138N   25354.11647965  .00013879  00000-0  47995-3 0  9993
2 60367  53.1614 319.2778 0001210 100.4039 259.7098 15.30193770 78441
Epoch: 2025-12-20T02:47Z
TLE epoch observation values (Epoch: 2025-12-20T02:47:43.841Z)
Latitude
-0.00005°
Longitude
-171.60281°
Altitude
476.282 km
Speed
7.629 km/s
True Right ascension
21h 17m 06s
True Declination
0° 00' 00"
Sunlit
Object was in daylight at epoch
Visualization orbit readout
Latitude
Unknown
Longitude
Unknown
Altitude
Unknown
Speed
Unknown
Apparent Right ascension
Unknown
Apparent Declination
Unknown
Sunlit
N/A
Visualization observer readout
Local Sidereal Time
09:55:37
Azimuth
Unknown
Elevation
Unknown
Doppler factor
Unknown
Orbital elements
Apogee altitude
476.319 km
Perigee altitude
474.661 km
Semi-major axis
6,853.627 km
Eccentricity
0.00012
Inclination
53.1614°
RAAN
319.2778°
Arg. of periapsis
100.4039°
True anomaly
259.69616°
Mean anomaly
259.7098°
Eccentric anomaly
259.70298°
Mean motion
3.82527 °/min
Orbital period
94.11 mins
BSTAR
0.00047995
Loading maneuver chart data...
Computing Atmospheric mass density...
Loading historical data...
Loading historical data...
Loading historical data...
Loading historical data...
Loading historical data...
Loading historical data...
Loading historical data...

Documentation

Showing up to 5 results
|